Cosmos 2221 Rocket - Orbit

View from above orbital plane
View from above orbital plane
View from above satellite
View from above satellite

Ground track
Ground track

The orbit data is extracted from the following two-line orbital elements,

1 22237U 92080B   13142.35995992  .00000352  00000-0  45989-4 0   289
2 22237 082.5142 060.1860 0020417 029.7260 109.8053 14.77576856103816
Epoch (UTC): 22 May 2013 08:38:20
Eccentricity: 0.0020417
inclination: 82.5142°
perigee height: 622 km
apogee height: 651 km
right ascension of ascending node: 60.1860°
argument of perigee: 29.7260°
revolutions per day: 14.77576856
mean anomaly at epoch: 109.8053°
orbit number at epoch: 10381

The dashed part of the orbit path shows where the satellite is in the earth's shadow,  

Developed and maintained by Chris Peat, Heavens-Above GmbH. Please read the updated FAQ before sending e-mail. Imprint. DLR